Weather History for KHHF - October, 2012

Change the Weather History Date:

Saturday, October 6, 2012

  Actual Average (KPPA) Record (KPPA)
Temperature  
Mean Temperature 46 °F -  
Max Temperature 50 °F 74 °F 88 °F (1979)
Min Temperature 42 °F 48 °F 35 °F (1985)
Degree Days  
Heating Degree Days 19    
Moisture  
Dew Point 31 °F    
Average Humidity 59    
Maximum Humidity 70    
Minimum Humidity 37    
Precipitation  
Precipitation 0.00 in - - ()
Sea Level Pressure  
Sea Level Pressure 30.29 in    
Wind  
Wind Speed 10 mph (ENE)    
Max Wind Speed 15 mph    
Max Gust Speed 20 mph    
Visibility 10 miles    
Events      
Averages and records for this station are not official NWS values.
T = Trace of Precipitation, MM = Missing Value Source: NWS Daily Summary

Daily Weather History Graph

Daily Weather History Graph

Search for Another Location

Airport or City:

Trip Planner

Search our weather history database for the weather conditions in past years. The results will help you decide how hot, cold, wet, or windy it might be!

Date:

Astronomy

Oct. 06, 2012 Rise Set
Actual Time 7:41 AM CDT 7:17 PM CDT
Civil Twilight 7:15 AM CDT 7:42 PM CDT
Nautical Twilight 6:45 AM CDT 8:12 PM CDT
Astronomical Twilight 6:16 AM CDT 8:42 PM CDT
Moon 11:43 PM CDT (10/6) 1:28 PM CDT (10/6)
Length of Visible Light 12h 27m
Length of Day
11h 36m
Waning Gibbous, 65% of the Moon is Illuminated
Oct 6
Waning Gibbous
Oct 8
Last Quarter
Oct 15
New
Oct 21
First Quarter
Oct 29
Full

Hourly Weather History & Observations

Time (CDT) Temp. Windchill Dew Point Humidity Pressure Visibility Wind Dir Wind Speed Gust Speed Precip Events Conditions
12:15 AM 50.0 °F - 24.8 °F 37% 30.27 in 10.0 mi ENE 13.8 mph 19.6 mph N/A   Overcast
12:35 AM 50.0 °F - 24.8 °F 37% 30.27 in 10.0 mi ENE 11.5 mph 17.3 mph N/A   Overcast
12:55 AM 48.2 °F - 30.2 °F 50% 30.28 in 7.0 mi ENE 15.0 mph 19.6 mph N/A   Overcast
1:15 AM 46.4 °F 41.9 °F 32.0 °F 57% 30.28 in 10.0 mi ENE 9.2 mph 18.4 mph N/A   Overcast
1:35 AM 46.4 °F 41.1 °F 32.0 °F 57% 30.28 in 10.0 mi ENE 11.5 mph 17.3 mph N/A   Overcast
1:55 AM 46.4 °F 41.5 °F 32.0 °F 57% 30.27 in 10.0 mi ENE 10.4 mph 16.1 mph N/A   Overcast
2:15 AM 46.4 °F 40.7 °F 32.0 °F 57% 30.27 in 10.0 mi ENE 12.7 mph 17.3 mph N/A   Overcast
2:35 AM 46.4 °F 42.4 °F 32.0 °F 57% 30.28 in 5.0 mi ENE 8.1 mph - N/A   Haze
2:55 AM 46.4 °F 41.5 °F 32.0 °F 57% 30.28 in 10.0 mi ENE 10.4 mph - N/A   Overcast
3:15 AM 46.4 °F 41.1 °F 32.0 °F 57% 30.27 in 10.0 mi ENE 11.5 mph - N/A   Overcast
3:35 AM 44.6 °F 38.4 °F 32.0 °F 61% 30.28 in 10.0 mi ENE 12.7 mph 16.1 mph N/A   Overcast
3:55 AM 44.6 °F 38.8 °F 32.0 °F 61% 30.27 in 10.0 mi East 11.5 mph - N/A   Overcast
4:15 AM 44.6 °F 40.7 °F 32.0 °F 61% 30.26 in 10.0 mi ENE 6.9 mph - N/A   Overcast
4:35 AM 44.6 °F 39.2 °F 32.0 °F 61% 30.26 in 10.0 mi NE 10.4 mph - N/A   Overcast
4:55 AM 44.6 °F 40.2 °F 32.0 °F 61% 30.26 in 10.0 mi NE 8.1 mph - N/A   Overcast
5:15 AM 44.6 °F 39.7 °F 32.0 °F 61% 30.26 in 10.0 mi ENE 9.2 mph - N/A   Overcast
5:35 AM 44.6 °F 39.7 °F 32.0 °F 61% 30.27 in 10.0 mi ENE 9.2 mph - N/A   Overcast
5:55 AM 44.6 °F 39.7 °F 32.0 °F 61% 30.27 in 10.0 mi ENE 9.2 mph - N/A   Overcast
6:15 AM 44.6 °F 39.2 °F 32.0 °F 61% 30.27 in 10.0 mi East 10.4 mph - N/A   Overcast
6:35 AM 44.6 °F 39.2 °F 32.0 °F 61% 30.27 in 10.0 mi ENE 10.4 mph - N/A   Overcast
6:55 AM 44.6 °F 40.2 °F 32.0 °F 61% 30.27 in 10.0 mi ENE 8.1 mph - N/A   Overcast
7:15 AM 44.6 °F 39.2 °F 32.0 °F 61% 30.27 in 10.0 mi ENE 10.4 mph - N/A   Overcast
7:35 AM 44.6 °F 40.2 °F 32.0 °F 61% 30.27 in 10.0 mi ENE 8.1 mph - N/A   Overcast
7:55 AM 44.6 °F 40.2 °F 32.0 °F 61% 30.28 in 10.0 mi ENE 8.1 mph - N/A   Overcast
8:15 AM 44.6 °F 40.7 °F 32.0 °F 61% 30.29 in 10.0 mi East 6.9 mph - N/A   Overcast
8:35 AM 44.6 °F 42.2 °F 32.0 °F 61% 30.29 in 10.0 mi ENE 4.6 mph - N/A   Overcast
8:55 AM 44.6 °F 40.7 °F 32.0 °F 61% 30.31 in 10.0 mi ENE 6.9 mph - N/A   Overcast
9:15 AM 44.6 °F 40.7 °F 32.0 °F 61% 30.31 in 10.0 mi NE 6.9 mph - N/A   Overcast
9:35 AM 44.6 °F 41.4 °F 32.0 °F 61% 30.30 in 10.0 mi ENE 5.8 mph - N/A   Overcast
9:55 AM 44.6 °F 40.2 °F 32.0 °F 61% 30.30 in 10.0 mi East 8.1 mph - N/A   Overcast
10:15 AM 44.6 °F 40.2 °F 32.0 °F 61% 30.30 in 10.0 mi East 8.1 mph - N/A   Overcast
10:35 AM 44.6 °F 39.7 °F 32.0 °F 61% 30.29 in 10.0 mi East 9.2 mph - N/A   Overcast
10:55 AM 44.6 °F 40.2 °F 30.2 °F 57% 30.31 in 10.0 mi East 8.1 mph - N/A   Overcast
11:15 AM 44.6 °F 39.2 °F 30.2 °F 57% 30.30 in 10.0 mi East 10.4 mph - N/A   Overcast
11:35 AM 44.6 °F 40.7 °F 30.2 °F 57% 30.31 in 10.0 mi East 6.9 mph - N/A   Overcast
11:55 AM 44.6 °F 39.2 °F 30.2 °F 57% 30.30 in 10.0 mi ENE 10.4 mph - N/A   Overcast
12:15 PM 44.6 °F 40.7 °F 30.2 °F 57% 30.30 in 10.0 mi East 6.9 mph - N/A   Overcast
12:35 PM 44.6 °F 39.7 °F 32.0 °F 61% 30.30 in 10.0 mi NE 9.2 mph - N/A   Overcast
12:55 PM 44.6 °F 39.2 °F 32.0 °F 61% 30.30 in 10.0 mi East 10.4 mph - N/A   Overcast
1:15 PM 44.6 °F 40.2 °F 32.0 °F 61% 30.29 in 10.0 mi ENE 8.1 mph - N/A   Overcast
1:35 PM 46.4 °F 41.9 °F 32.0 °F 57% 30.29 in 10.0 mi ENE 9.2 mph - N/A   Overcast
1:55 PM 46.4 °F 41.5 °F 32.0 °F 57% 30.28 in 10.0 mi ENE 10.4 mph - N/A   Overcast
2:15 PM 46.4 °F 41.5 °F 32.0 °F 57% 30.27 in 10.0 mi ENE 10.4 mph - N/A   Overcast
2:35 PM 44.6 °F 39.7 °F 30.2 °F 57% 30.26 in 10.0 mi ENE 9.2 mph 16.1 mph N/A   Overcast
2:55 PM 46.4 °F 41.9 °F 30.2 °F 53% 30.26 in 10.0 mi East 9.2 mph - N/A   Overcast
3:15 PM 46.4 °F 41.5 °F 30.2 °F 53% 30.26 in 10.0 mi ENE 10.4 mph - N/A   Overcast
3:35 PM 46.4 °F 41.9 °F 30.2 °F 53% 30.26 in 10.0 mi ENE 9.2 mph - N/A   Overcast
3:55 PM 44.6 °F 39.7 °F 30.2 °F 57% 30.26 in 10.0 mi ENE 9.2 mph 16.1 mph N/A   Overcast
4:15 PM 44.6 °F 39.2 °F 30.2 °F 57% 30.26 in 10.0 mi NE 10.4 mph - N/A   Overcast
4:35 PM 46.4 °F 42.9 °F 30.2 °F 53% 30.26 in 10.0 mi ENE 6.9 mph - N/A   Overcast
4:55 PM 46.4 °F 41.5 °F 32.0 °F 57% 30.26 in 10.0 mi ENE 10.4 mph - N/A   Overcast
5:15 PM 44.6 °F 39.7 °F 30.2 °F 57% 30.26 in 10.0 mi ENE 9.2 mph - N/A   Overcast
5:35 PM 44.6 °F 39.7 °F 30.2 °F 57% 30.26 in 10.0 mi ENE 9.2 mph - N/A   Overcast
6:15 PM 44.6 °F 39.2 °F 30.2 °F 57% 30.26 in 10.0 mi East 10.4 mph - N/A   Overcast
6:35 PM 44.6 °F 40.2 °F 30.2 °F 57% 30.27 in 10.0 mi ENE 8.1 mph - N/A   Overcast
6:55 PM 44.6 °F 39.7 °F 30.2 °F 57% 30.27 in 10.0 mi East 9.2 mph - N/A   Overcast
7:15 PM 44.6 °F 40.2 °F 32.0 °F 61% 30.28 in 10.0 mi ENE 8.1 mph - N/A   Overcast
7:35 PM 44.6 °F 39.7 °F 32.0 °F 61% 30.29 in 10.0 mi ENE 9.2 mph - N/A   Overcast
7:55 PM 44.6 °F 39.7 °F 32.0 °F 61% 30.30 in 10.0 mi ENE 9.2 mph - N/A   Overcast
8:15 PM 42.8 °F 37.0 °F 32.0 °F 66% 30.31 in 10.0 mi ENE 10.4 mph - N/A   Overcast
8:35 PM 42.8 °F 37.5 °F 32.0 °F 66% 30.32 in 10.0 mi ENE 9.2 mph - N/A   Overcast
8:55 PM 42.8 °F 38.0 °F 32.0 °F 66% 30.33 in 10.0 mi ENE 8.1 mph - N/A   Overcast
9:15 PM 42.8 °F 39.3 °F 32.0 °F 66% 30.33 in 10.0 mi NE 5.8 mph - N/A   Overcast
9:35 PM 42.8 °F 39.3 °F 32.0 °F 66% 30.34 in 10.0 mi NE 5.8 mph - N/A   Overcast
9:55 PM 42.8 °F 38.6 °F 32.0 °F 66% 30.34 in 10.0 mi NE 6.9 mph - N/A   Overcast
10:15 PM 42.8 °F 39.3 °F 32.0 °F 66% 30.34 in 10.0 mi ENE 5.8 mph - N/A   Overcast
10:35 PM 42.8 °F 38.6 °F 32.0 °F 66% 30.35 in 10.0 mi ENE 6.9 mph - N/A   Overcast
11:15 PM 42.8 °F 41.1 °F 32.0 °F 66% 30.35 in 10.0 mi ENE 3.5 mph - N/A   Overcast
11:35 PM 42.8 °F 40.1 °F 33.8 °F 70% 30.35 in 10.0 mi East 4.6 mph - N/A   Overcast
11:55 PM 42.8 °F 41.1 °F 33.8 °F 70% 30.35 in 10.0 mi ENE 3.5 mph - N/A   Overcast